User: anonymous
Location: Melbourne
(37.8170°S, 144.9670°E)
Time: 16:50:37
(UTC+10:00)
Language:

CZ-3 R/B - Orbit

View from above orbital plane
View from above orbital plane
View from above satellite
View from above satellite

Ground track
Ground track

The orbit data is extracted from the following two-line orbital elements,

1 29517U 06048B   14230.33145299  .00034168  00000-0  10343-2 0  4314
2 29517 028.4584 164.7822 5300042 052.8440 048.9153 05.22851981103065
Epoch (UTC): 18 August 2014 07:57:17
Eccentricity: 0.5300042
inclination: 28.4584°
perigee height: 212 km
apogee height: 15076 km
right ascension of ascending node: 164.7822°
argument of perigee: 52.8440°
revolutions per day: 5.22851981
mean anomaly at epoch: 48.9153°
orbit number at epoch: 10306

The dashed part of the orbit path shows where the satellite is in the earth's shadow,  

DLR